ATLAS 5 CENTAUR DEB, 43951

Orbit data source: Space-Track

ATLAS 5 CENTAUR DEB, 43951 is space debris in HEO originally from a launch on Wed, 17 Sep 2014 UTC launched from the Air Force Eastern Test Range (AFETR). Debris objects in space refer to the collection of defunct objects orbiting the Earth. Examples of debris include non-operational satellites, rocket bodies, and fragments generated from explosions, collisions, or faulty payload assembly.

Loading next visibility...
Identifier
43951, 2014-055E
Orbit
HEO
Country
Flag of USUS
Related business
Flag of USUnited Launch Alliance/Lockheed Martin (US)
Manufacturer
Unknown
Mission
Spacecraft
Bus & Motor
Unknown
Mass
Unknown
Launch date (UTC)
2014-09-17 (12 years ago)
Launch vehicle
Unknown
Launch site
Air Force Eastern Test Range (AFETR)
Object type
Payload
Rocket body
Debris
Shape & HBR
Unknown shape, 1.1 m
Radar Cross Section
Small (<0.1 m²)

Expand to show TLE details & history
Last TLE update: 1 day ago

TLE from 1 day ago
0 ATLAS 5 CENTAUR DEB
1 43951U 14055E   26124.39686798 -.00000064  00000-0  00000-0 0  9999
2 43951  20.5955 127.9839 4867370 195.5740 141.5187  1.89446179 53065
Epoch: 2026-05-04T09:31Z
TLE epoch observation values (Epoch: 2026-05-04T09:31:29.393Z)
Latitude
-0.00008°
Longitude
122.80462°
Altitude
33,232.639 km
Speed
2.383 km/s
True Right ascension
08h 31m 51s
True Declination
0° 00' 00"
Sunlit
Object was in daylight at epoch
Visualization orbit readout
Latitude
Unknown
Longitude
Unknown
Altitude
Unknown
Speed
Unknown
Apparent Right ascension
Unknown
Apparent Declination
Unknown
Sunlit
N/A
Visualization observer readout
Local Sidereal Time
01:37:55
Azimuth
Unknown
Elevation
Unknown
Doppler factor
Unknown
Orbital elements
Apogee altitude
34,643.192 km
Perigee altitude
7,783.568 km
Semi-major axis
27,591.517 km
Eccentricity
0.48674
Inclination
20.5955°
RAAN
127.9839°
Arg. of periapsis
195.574°
True anomaly
164.44178°
Mean anomaly
141.5187°
Eccentric anomaly
153.82186°
Mean motion
0.47357 °/min
Orbital period
760.19 mins
BSTAR
0
Loading maneuver chart data...
Computing Atmospheric mass density...

Documentation

Showing up to 5 results
|